This is the latest recevied weather packets stored in our database for station/object N1TKS. If no packets are shown the sender has not sent any weather packets the latest 10 day(s).
| Time | Temp. | Humidity | Pressure | Rain* | Wind** | Luminosity | Snow |
|---|---|---|---|---|---|---|---|
| 1777773714 | 11.67° C | 50% | 1011.6 hPa | 0 mm | - | - | - |
| 1777773415 | 12.22° C | 49% | 1011.6 hPa | 0 mm | - | - | - |
| 1777773113 | 12.22° C | 49% | 1011.6 hPa | 0 mm | - | - | - |
| 1777772514 | 12.22° C | 49% | 1011.4 hPa | 0 mm | - | - | - |
| 1777771914 | 12.22° C | 48% | 1011.7 hPa | 0 mm | - | - | - |
| 1777771659 | 12.22° C | 47% | 1011.5 hPa | 0 mm | - | - | - |
| 1777771615 | 12.22° C | 47% | 1011.5 hPa | 0 mm | - | - | - |
| 1777769815 | 12.22° C | 46% | 1011.2 hPa | 0 mm | - | - | - |
| 1777769302 | 12.78° C | 46% | 1011.1 hPa | 0 mm | - | - | - |
| 1777769214 | 12.78° C | 46% | 1011.1 hPa | 0 mm | - | - | - |
| 1777768914 | 12.78° C | 46% | 1011.1 hPa | 0 mm | - | - | - |
| 1777768615 | 12.78° C | 46% | 1011.2 hPa | 0 mm | - | - | - |
| 1777768372 | 12.78° C | 47% | 1011.1 hPa | 0 mm | - | - | - |
| 1777768314 | 12.78° C | 47% | 1011.1 hPa | 0 mm | - | - | - |
| 1777768013 | 12.78° C | 47% | 1011 hPa | 0 mm | - | - | - |
| 1777767414 | 12.78° C | 48% | 1011 hPa | 0 mm | - | - | - |
| 1777767115 | 12.78° C | 49% | 1011 hPa | 0 mm | - | - | - |
| 1777766820 | 13.33° C | 48% | 1011 hPa | 0 mm | - | - | - |
| 1777766517 | 13.33° C | 48% | 1010.9 hPa | 0 mm | - | - | - |
| 1777766216 | 13.33° C | 49% | 1010.8 hPa | 0 mm | - | - | - |
| 1777765616 | 13.33° C | 52% | 1010.8 hPa | 0 mm | - | - | - |
| 1777765315 | 13.33° C | 56% | 1010.7 hPa | 0 mm | - | - | - |
| 1777765013 | 13.33° C | 61% | 1010.6 hPa | 0 mm | - | - | - |
| 1777764714 | 13.33° C | 68% | 1010.6 hPa | 0 mm | - | - | - |
| 1777764413 | 13.33° C | 68% | 1010.6 hPa | 0 mm | - | - | - |
* Rain latest hour (hover to see other rain measurements)
** Current wind speed in m/s (hover to see current wind gust speed)